Temperature
17 17 18 18 18 18 18 18 18 18 18 18 18 18 18 18 18 18 18 18 18 18 18 18 18 18 18 18 18 18 18 18 18 18 18 18 18 18 18 18 18 18 18
17 17 17 17 18 18 18 18 18 18 18 18 18 18 18 18 18 18 18 18 17 17 17 18 18 18 18 18 18 18 18 18 18 18 18 18 18 18 18 18 18 18 18
17 17 17 17 18 18 18 18 18 18 18 18 17 18 18 18 17 17 17 17 17 17 17 17 17 17 17 18 18 18 18 18 18 18 18 17 18 18 18 18 18 18 18
17 17 17 17 18 18 17 17 17 17 17 17 17 17 17 17 17 17 17 17 17 17 17 17 17 17 17 17 17 18 18 18 18 18 17 17 17 18 18 18 18 18 18
17 17 17 17 17 17 17 17 17 17 17 17 17 17 17 17 17 17 17 17 17 17 17 17 17 17 17 17 17 17 17 17 17 17 17 17 17 18 18 18 18 18 18
17 17 17 17 17 17 17 17 17 17 17 17 17 16 16 17 17 17 17 17 17 17 17 17 17 17 17 17 17 17 17 17 17 17 17 17 17 18 18 18 18 18 18
17 17 17 17 17 17 17 17 17 16 16 16 16 16 16 16 16 16 16 16 16 17 17 17 17 17 17 17 17 17 17 17 16 17 17 17 17 18 18 18 18 18 18
17 17 16 17 17 17 17 16 16 16 16 16 16 16 16 16 16 16 16 16 16 16 16 16 16 16 17 17 17 17 17 17 16 17 16 17 17 17 17 17 18 18 18
17 16 16 16 16 17 16 16 16 16 16 16 16 16 16 16 16 16 16 16 16 16 16 16 16 16 16 16 16 17 17 17 16 16 17 17 17 17 17 17 17 17 18
16 16 16 16 16 16 16 16 16 16 16 16 16 16 16 16 16 16 16 16 16 16 16 16 16 16 16 16 16 16 17 17 16 16 17 17 17 17 17 17 17 17 17
16 16 16 16 16 16 16 16 16 16 16 16 16 16 16 16 16 16 16 16 16 16 16 16 16 16 16 16 16 16 16 16 16 16 16 17 17 17 17 17 17 17 17
16 16 16 16 16 16 16 16 16 16 16 16 16 16 16 16 16 16 16 16 16 16 16 16 16 16 16 16 16 16 16 16 16 16 16 17 17 17 17 17 17 17 17
17 16 16 17 17 16 16 16 16 16 16 16 16 16 16 16 16 16 16 16 16 16 16 16 16 16 16 16 16 16 16 17 17 16 16 16 16 16 16 17 17 17 17
16 16 16 17 17 17 16 16 16 16 16 16 16 16 16 16 16 16 16 16 16 16 15 16 16 16 16 16 16 16 16 16 16 16 16 16 16 16 16 16 17 17 17
16 16 16 16 17 17 16 16 16 16 16 16 16 16 16 16 16 16 16 15 16 16 16 16 16 16 16 16 16 16 16 16 16 16 16 16 16 16 16 16 16 16 16
17 17 16 16 16 16 16 16 16 16 16 16 16 16 16 16 16 16 16 15 15 15 16 16 16 15 16 16 16 16 16 16 16 16 16 16 16 16 16 16 16 16 16
17 17 16 16 16 16 16 16 16 16 16 16 16 16 16 15 16 16 16 15 15 15 15 15 15 15 15 15 15 15 16 16 16 16 16 16 16 16 16 16 16 16 16
17 17 16 16 16 16 16 16 16 16 16 16 15 15 16 16 15 15 15 15 15 15 15 15 15 15 15 15 15 15 15 15 15 15 16 16 15 15 16 16 16 16 16
17 17 16 16 16 16 16 16 16 16 15 15 15 15 15 15 15 15 15 15 15 15 15 15 15 15 15 15 15 15 15 15 15 15 15 15 15 15 15 15 16 16 16
17 17 16 16 16 16 16 16 15 15 15 15 15 15 15 15 15 15 15 15 15 15 15 15 15 15 15 15 15 15 15 15 15 15 15 15 15 15 15 15 15 15 15
17 17 16 16 16 16 16 16 15 15 15 15 15 15 15 15 15 15 15 15 15 15 15 15 15 15 15 15 15 15 15 15 15 15 15 15 15 14 15 15 15 15 15
17 17 16 16 16 16 16 15 15 15 15 15 15 15 15 15 15 15 15 15 15 15 15 15 14 15 15 15 15 16 16 15 14 14 14 14 14 14 14 14 14 14 15
17 17 17 16 16 16 16 15 15 15 15 15 15 15 15 15 15 15 15 15 15 15 15 15 14 15 15 15 15 16 16 16 15 14 14 14 14 14 14 14 14 14 14
17 17 17 16 16 16 16 15 15 15 15 15 15 15 15 15 15 15 15 15 15 15 15 15 15 15 15 15 15 15 15 15 16 15 14 14 14 14 14 14 14 14 14
17 17 17 16 16 16 16 16 15 15 15 15 15 15 15 15 15 15 15 15 15 15 15 15 15 15 15 15 15 15 15 15 15 16 15 14 14 14 14 14 14 14 14
17 17 17 17 16 16 16 16 15 15 15 15 15 15 15 15 15 15 15 14 14 14 14 15 15 15 15 15 15 15 15 15 15 15 15 14 14 13 13 13 13 13 13
Wind_Speed
7 8 10 9 10 11 12 13 13 13 13 13 12 12 11 11 11 11 10 10 10 10 10 10 9 9 9 9 9 8 8 8 7 7 7 7 7 7 7 6 4 6 7
9 10 11 10 10 11 12 13 13 13 13 12 12 11 11 10 10 10 10 10 10 10 9 9 9 9 8 8 8 8 7 7 7 6 5 6 7 7 7 7 6 6 6
10 11 11 10 10 11 12 13 13 13 12 12 11 11 10 10 10 9 9 9 9 9 9 9 8 8 8 8 7 7 7 7 6 4 1 4 7 7 7 7 6 6 6
10 10 10 11 11 11 12 13 13 13 12 12 11 11 10 10 9 9 9 8 8 9 8 8 8 8 7 7 7 6 6 6 4 1 2 5 5 8 6 6 6 5 5
10 10 11 11 12 12 12 13 12 12 12 11 11 10 9 9 9 8 8 8 8 8 8 7 8 7 7 7 7 6 6 5 2 1 4 5 5 7 6 5 5 5 4
10 11 12 11 12 12 12 13 12 11 11 10 10 9 8 8 8 8 8 7 7 7 7 7 7 7 7 7 7 7 6 3 2 4 4 4 5 6 5 4 4 4 4
11 11 13 12 12 12 11 12 11 11 10 9 9 9 8 8 8 7 7 7 7 6 6 6 6 6 7 7 7 6 5 2 3 4 4 4 6 5 5 4 3 3 3
11 12 13 12 11 12 11 11 11 10 10 9 9 9 8 8 8 7 6 6 6 6 5 5 5 6 6 6 5 5 3 3 3 3 3 5 6 4 3 3 3 3 2
10 10 10 11 12 13 11 11 10 10 9 9 8 8 8 7 7 7 6 6 5 5 5 6 6 6 6 5 5 4 3 3 1 2 3 4 5 4 3 3 3 3 2
9 9 8 8 8 9 11 11 10 10 9 9 8 7 6 6 6 4 5 6 5 5 6 6 7 7 6 6 5 4 1 3 2 2 3 6 5 3 3 4 3 3 3
8 7 7 6 7 7 8 9 9 9 8 7 8 7 3 4 5 5 7 6 5 6 6 6 6 6 5 6 5 2 2 1 2 2 4 7 4 4 4 4 4 4 3
8 7 6 6 7 7 7 7 6 6 6 6 6 6 5 5 5 4 7 6 5 5 6 6 4 4 3 4 5 3 1 2 2 4 7 7 5 5 5 4 4 4 3
7 6 5 5 6 6 6 5 5 5 5 6 6 6 5 4 3 4 4 5 4 3 4 5 4 2 3 3 2 3 3 3 3 4 7 7 6 5 5 5 4 4 3
7 6 5 5 6 6 6 5 5 5 5 5 5 6 5 4 3 4 3 4 3 3 3 2 2 3 3 3 3 3 3 3 3 5 7 8 7 7 6 6 5 4 4
6 5 5 4 5 6 6 4 5 5 5 5 5 4 5 4 3 3 3 3 3 3 2 2 2 3 3 3 3 3 4 4 4 5 6 9 8 8 8 7 7 6 5
6 5 5 5 5 5 5 5 5 5 4 5 4 4 5 4 3 3 3 3 3 3 2 2 3 2 2 3 3 4 3 4 5 5 5 7 9 9 8 8 8 7 7
6 6 6 5 4 4 5 5 4 4 5 4 4 4 4 4 3 3 3 3 3 3 3 2 4 3 3 3 3 4 4 4 5 5 5 5 6 9 10 9 9 8 7
6 6 6 5 5 5 4 4 4 4 4 4 4 3 4 3 3 3 3 3 3 3 3 3 2 2 3 3 3 4 4 4 5 5 4 5 5 6 9 10 10 9 8
7 7 7 6 5 5 5 4 4 4 3 3 3 3 3 3 3 3 3 2 3 3 2 2 3 3 4 4 4 4 4 4 5 5 6 7 7 6 6 8 9 10 10
7 8 7 6 6 6 4 4 3 3 3 3 4 4 4 3 3 3 2 2 3 3 3 3 4 3 3 3 4 5 5 5 5 6 6 6 7 7 7 7 6 8 11
8 8 8 7 6 5 4 3 3 3 2 3 3 4 3 3 3 3 2 3 2 3 3 3 4 5 3 3 4 5 5 5 6 5 5 5 7 8 8 8 7 6 7
9 8 8 8 7 6 4 3 3 3 2 3 3 4 4 3 3 2 2 2 2 3 3 3 2 2 3 1 1 2 3 3 4 5 5 5 6 6 7 8 8 8 8
10 9 8 8 8 7 6 4 4 3 3 3 3 3 4 4 4 3 3 3 3 2 3 2 2 2 2 2 2 1 0 1 2 3 5 5 6 5 6 7 8 8 8
10 9 8 8 8 8 7 5 5 3 3 2 2 3 3 4 4 3 3 3 3 3 3 2 2 1 1 2 2 2 3 2 0 2 2 4 6 6 6 6 7 8 8
10 9 8 8 8 7 7 6 5 4 3 3 3 3 3 3 4 3 3 3 3 3 3 3 2 2 1 1 1 1 2 1 1 0 2 2 3 4 5 6 6 7 8
9 9 8 9 8 7 7 7 6 5 4 4 3 3 3 3 3 4 3 3 3 3 3 3 3 3 2 2 2 2 1 1 1 1 1 2 2 3 4 5 5 6 6
Wind_Direction
132 127 123 126 126 121 116 116 118 115 112 110 108 106 105 102 99 96 95 92 89 88 87 85 86 86 86 86 82 82 84 86 88 83 81 77 79 84 82 79 84 89 80
131 127 126 125 125 120 116 114 113 111 108 107 105 104 104 100 96 94 93 90 88 86 86 85 85 85 84 84 83 81 82 80 83 81 83 95 85 82 81 70 52 75 82
127 127 128 122 119 117 115 113 111 109 108 107 106 104 104 99 97 93 92 90 87 85 84 83 84 85 84 81 78 78 80 81 80 87 111 96 96 85 79 75 73 80 80
120 123 123 122 120 119 117 114 110 109 109 107 104 103 101 98 97 93 91 88 85 83 82 84 82 83 81 81 76 74 79 83 85 187 123 85 86 86 77 71 72 76 78
118 120 121 126 125 123 119 115 111 109 107 106 103 101 99 97 95 92 91 87 83 80 79 79 78 77 76 78 77 74 75 84 112 172 80 79 77 81 74 69 67 66 71
117 116 116 120 117 117 116 114 112 109 107 105 103 102 98 96 93 89 87 82 80 78 76 73 74 75 75 73 72 72 71 80 194 90 89 86 81 78 71 65 63 59 65
114 113 115 112 110 113 112 109 108 105 104 103 100 97 92 91 88 86 85 84 81 79 76 72 73 75 76 72 70 71 64 17 76 89 89 83 76 70 65 54 57 55 57
109 111 113 113 110 113 111 109 108 106 105 103 102 98 93 90 88 85 84 83 81 80 76 75 78 83 84 80 77 74 51 321 101 89 86 84 73 71 63 47 48 42 41
107 106 108 113 112 113 109 105 103 102 102 100 98 95 90 84 81 80 85 83 81 80 78 80 82 89 93 92 85 79 66 2 47 82 85 80 73 60 49 39 37 32 31
106 107 109 110 114 117 116 107 101 97 96 95 91 86 96 112 105 98 101 84 84 84 82 82 82 87 92 90 84 84 115 239 70 87 68 78 67 50 41 35 28 23 22
106 108 112 114 110 107 108 111 113 107 100 111 105 97 113 101 100 109 71 75 83 86 86 85 89 95 107 109 100 121 232 104 87 62 59 61 54 46 39 36 25 20 26
123 121 121 121 116 108 103 107 105 105 104 95 89 86 77 73 72 75 98 91 91 99 110 97 114 152 183 118 127 190 104 88 95 80 69 59 55 47 36 32 27 23 25
128 124 119 120 112 109 106 102 96 93 93 92 89 89 76 75 90 87 94 113 111 136 109 123 166 111 94 79 77 81 56 46 63 70 71 58 51 45 38 41 39 30 19
133 125 122 121 113 107 107 104 105 101 93 87 83 76 72 65 65 73 76 72 80 85 86 93 80 88 84 93 87 84 92 69 63 70 70 53 39 37 41 46 40 36 24
139 134 125 121 109 105 98 98 102 97 92 92 80 76 73 70 72 79 79 74 71 80 101 93 85 81 80 73 71 75 78 72 66 63 77 67 48 40 42 48 47 45 42
146 136 128 126 111 109 109 106 95 98 97 85 80 72 66 66 65 68 72 66 63 67 71 85 83 87 86 79 73 69 63 71 70 65 71 85 70 52 49 48 46 45 48
151 143 136 134 126 114 104 99 102 100 96 92 85 71 67 57 52 62 62 73 69 76 86 70 84 86 88 97 90 78 75 61 65 67 61 56 72 74 62 53 48 46 49
155 149 144 146 142 125 116 114 109 100 91 91 88 71 62 61 56 61 63 75 76 76 81 80 79 96 94 92 87 83 85 77 70 65 65 60 48 56 70 65 57 51 51
163 157 155 152 148 133 124 119 108 104 91 83 76 68 57 57 55 70 60 66 80 82 86 87 85 89 97 96 98 88 80 76 70 61 55 51 52 47 55 77 77 65 55
167 161 158 154 152 139 135 131 122 104 93 79 70 61 46 49 55 70 79 79 80 92 96 98 100 92 95 101 95 88 81 81 71 55 50 52 47 46 47 51 64 77 71
172 169 163 164 157 151 147 152 144 128 107 86 72 64 60 57 60 72 72 74 72 93 102 108 107 112 106 105 111 104 94 76 68 60 46 48 54 49 51 54 47 46 68
176 175 171 171 168 164 158 150 139 126 105 82 75 68 54 61 59 67 82 89 91 98 107 101 105 110 104 93 110 126 124 110 68 55 55 48 49 53 49 48 49 47 40
181 178 178 176 171 169 162 151 144 133 136 122 101 78 55 58 64 64 72 78 87 102 100 93 118 124 116 95 37 356 11 79 103 72 54 57 53 48 49 46 44 45 40
184 181 181 178 172 170 169 169 164 160 140 115 101 93 83 66 66 66 76 77 84 85 94 95 78 92 111 116 93 26 28 47 333 125 89 62 54 52 47 43 40 42 41
180 180 179 175 173 172 173 168 173 161 137 122 114 108 94 78 69 71 68 75 81 84 83 74 73 65 75 58 80 83 74 65 341 50 104 89 69 56 50 43 41 38 37
171 173 174 173 170 171 176 174 173 161 154 146 137 121 111 98 82 79 76 81 87 87 87 83 85 80 59 61 55 59 54 51 43 38 89 109 85 64 55 48 39 36 33
Height
1536 1537 1537 1539 1540 1541 1542 1543 1543 1545 1545 1546 1547 1547 1548 1548 1548 1549 1549 1549 1550 1550 1550 1551 1551 1551 1551 1551 1551 1552 1552 1552 1552 1552 1552 1552 1552 1552 1552 1553 1553 1554 1553
1536 1537 1538 1540 1541 1542 1543 1544 1544 1545 1546 1547 1548 1548 1549 1549 1549 1550 1550 1551 1551 1551 1552 1552 1552 1552 1552 1553 1553 1553 1553 1553 1553 1554 1554 1554 1554 1554 1554 1554 1554 1554 1554
1537 1538 1539 1541 1542 1543 1544 1545 1546 1546 1547 1548 1549 1549 1550 1550 1550 1551 1551 1552 1552 1552 1553 1553 1553 1553 1553 1554 1554 1554 1554 1554 1555 1555 1555 1556 1556 1555 1555 1555 1555 1555 1555
1538 1539 1541 1541 1543 1544 1545 1546 1547 1548 1548 1549 1550 1550 1551 1551 1551 1552 1552 1552 1553 1553 1554 1554 1554 1554 1554 1555 1555 1555 1555 1555 1556 1556 1558 1558 1557 1556 1556 1556 1556 1556 1556
1540 1541 1541 1542 1544 1545 1546 1547 1548 1549 1550 1550 1551 1551 1552 1552 1552 1553 1553 1553 1554 1554 1555 1555 1555 1555 1555 1556 1556 1556 1556 1556 1557 1557 1558 1558 1558 1557 1557 1557 1557 1557 1557
1541 1542 1542 1544 1545 1546 1548 1549 1549 1550 1551 1551 1552 1553 1553 1553 1553 1553 1554 1554 1555 1555 1555 1556 1556 1556 1556 1556 1557 1557 1557 1557 1558 1559 1558 1558 1558 1558 1558 1558 1558 1557 1557
1543 1544 1545 1545 1546 1548 1549 1550 1551 1552 1552 1553 1553 1554 1554 1554 1554 1554 1555 1555 1555 1556 1556 1556 1557 1557 1557 1557 1557 1558 1558 1558 1560 1559 1559 1559 1558 1558 1558 1558 1558 1558 1558
1545 1546 1547 1547 1548 1549 1550 1552 1552 1552 1553 1554 1554 1555 1555 1556 1556 1556 1556 1556 1556 1556 1557 1557 1557 1558 1558 1558 1558 1559 1559 1559 1560 1561 1560 1560 1559 1559 1558 1558 1558 1558 1557
1547 1548 1549 1551 1551 1551 1552 1553 1554 1554 1555 1555 1556 1556 1557 1557 1557 1557 1557 1557 1557 1558 1558 1558 1558 1558 1559 1559 1559 1559 1559 1559 1561 1561 1561 1561 1559 1559 1559 1558 1558 1557 1557
1549 1550 1551 1553 1554 1554 1555 1555 1555 1556 1556 1557 1557 1558 1558 1558 1559 1559 1559 1559 1559 1559 1559 1559 1559 1559 1560 1560 1560 1560 1560 1560 1562 1562 1562 1561 1560 1559 1559 1558 1558 1557 1556
1550 1552 1553 1554 1556 1557 1557 1557 1557 1557 1558 1558 1559 1559 1560 1561 1561 1561 1560 1560 1560 1560 1560 1560 1560 1560 1561 1561 1561 1561 1561 1562 1562 1562 1561 1560 1560 1559 1559 1558 1557 1556 1556
1552 1554 1555 1556 1558 1558 1559 1559 1560 1560 1560 1561 1561 1561 1562 1562 1562 1562 1561 1561 1561 1561 1561 1561 1561 1562 1562 1563 1562 1562 1563 1563 1563 1563 1561 1560 1560 1559 1558 1558 1557 1556 1555
1554 1555 1557 1558 1559 1560 1560 1561 1561 1562 1561 1562 1563 1563 1563 1563 1564 1564 1564 1563 1563 1563 1563 1563 1563 1564 1564 1564 1564 1564 1564 1564 1564 1563 1562 1561 1560 1559 1558 1557 1556 1555 1554
1555 1557 1558 1560 1561 1561 1562 1562 1563 1563 1564 1564 1564 1565 1565 1565 1565 1565 1565 1565 1564 1564 1564 1564 1564 1565 1564 1565 1565 1565 1564 1564 1564 1564 1562 1561 1561 1560 1558 1557 1556 1555 1554
1557 1558 1559 1561 1562 1562 1563 1563 1564 1565 1565 1566 1565 1566 1566 1566 1566 1566 1566 1565 1565 1565 1565 1565 1565 1565 1565 1565 1565 1565 1565 1565 1565 1564 1563 1562 1561 1560 1559 1558 1557 1556 1554
1557 1559 1560 1561 1562 1563 1564 1565 1565 1566 1566 1567 1567 1567 1567 1567 1567 1567 1567 1566 1566 1566 1566 1566 1566 1565 1565 1565 1565 1565 1565 1565 1565 1565 1564 1563 1562 1561 1560 1559 1557 1556 1555
1558 1560 1561 1562 1563 1564 1565 1566 1566 1567 1568 1568 1568 1568 1568 1568 1568 1568 1568 1567 1567 1567 1567 1566 1566 1566 1566 1566 1566 1566 1566 1566 1566 1565 1565 1564 1563 1561 1560 1560 1559 1558 1557
1559 1560 1561 1562 1563 1564 1565 1566 1567 1568 1568 1569 1569 1569 1569 1569 1569 1568 1568 1568 1567 1567 1567 1567 1567 1567 1566 1566 1567 1567 1567 1566 1566 1566 1566 1565 1564 1563 1562 1561 1560 1559 1558
1559 1560 1562 1563 1564 1565 1566 1567 1568 1569 1569 1569 1570 1569 1570 1570 1570 1569 1568 1568 1568 1568 1568 1567 1567 1567 1567 1567 1567 1567 1568 1568 1567 1567 1567 1566 1565 1564 1563 1562 1561 1560 1559
1559 1561 1562 1563 1564 1565 1566 1568 1568 1569 1570 1570 1570 1570 1570 1570 1570 1570 1569 1569 1569 1569 1568 1568 1568 1567 1568 1568 1569 1569 1569 1569 1568 1568 1567 1567 1566 1565 1564 1563 1563 1562 1561
1559 1560 1561 1563 1564 1565 1567 1568 1569 1570 1570 1571 1570 1570 1570 1570 1570 1570 1570 1570 1569 1569 1569 1569 1569 1569 1569 1570 1570 1570 1570 1570 1570 1569 1568 1568 1567 1566 1565 1564 1564 1563 1563
1558 1559 1561 1563 1564 1565 1566 1568 1569 1570 1571 1571 1571 1571 1571 1571 1570 1571 1571 1571 1570 1570 1570 1570 1570 1571 1570 1570 1571 1571 1571 1572 1571 1570 1570 1569 1568 1567 1567 1566 1565 1564 1564
1557 1558 1560 1562 1564 1565 1566 1568 1569 1570 1571 1572 1572 1572 1572 1571 1571 1571 1571 1571 1571 1571 1571 1571 1571 1571 1571 1571 1571 1572 1572 1571 1572 1572 1571 1570 1569 1568 1568 1567 1566 1565 1564
1555 1558 1560 1562 1563 1565 1566 1568 1569 1570 1572 1572 1572 1573 1572 1572 1572 1572 1572 1572 1572 1572 1572 1572 1572 1572 1572 1572 1572 1572 1573 1572 1572 1573 1573 1571 1570 1569 1569 1568 1567 1566 1565
1554 1556 1559 1561 1563 1564 1566 1567 1569 1570 1571 1572 1572 1573 1573 1573 1573 1573 1573 1573 1573 1573 1573 1572 1572 1573 1573 1573 1573 1573 1572 1572 1573 1573 1573 1573 1572 1571 1570 1569 1568 1567 1566
1552 1554 1557 1559 1561 1563 1565 1567 1568 1570 1571 1572 1573 1574 1574 1574 1574 1574 1574 1574 1574 1574 1573 1573 1573 1573 1573 1573 1573 1573 1573 1573 1573 1573 1573 1572 1572 1572 1570 1569 1568 1567 1566